Time,TemperatureF,DewpointF,PressureIn,WindDirection,WindDirectionDegrees,WindSpeedMPH,WindSpeedGustMPH,Humidity,HourlyPrecipIn,Conditions,Clouds,dailyrainin,SoftwareType,DateUTC
2013-07-12 00:01:00,73.9,51.9,29.79,North,0,3.5,3.5,46,0.00,,---,0.00,VWS V14.00,2013-07-12 05:01:00,
2013-07-12 00:06:00,73.8,51.7,29.79,NNW,338,4.1,4.1,46,0.00,,---,0.00,VWS V14.00,2013-07-12 05:06:00,
2013-07-12 00:11:00,73.6,52.1,29.79,NW,315,3.0,3.0,47,0.00,,---,0.00,VWS V14.00,2013-07-12 05:11:00,
2013-07-12 00:17:00,73.4,52.0,29.79,SSE,158,3.0,4.7,47,0.00,,---,0.00,VWS V14.00,2013-07-12 05:17:00,
2013-07-12 00:22:00,73.2,52.4,29.79,North,0,2.4,2.9,48,0.00,,---,0.00,VWS V14.00,2013-07-12 05:22:00,
2013-07-12 00:27:00,73.0,52.8,29.79,ENE,68,3.5,3.5,49,0.00,,---,0.00,VWS V14.00,2013-07-12 05:27:00,
2013-07-12 00:33:00,72.9,52.6,29.79,NW,315,4.4,4.4,49,0.00,,---,0.00,VWS V14.00,2013-07-12 05:33:00,
2013-07-12 00:39:00,72.7,53.0,29.79,NW,315,4.9,4.9,50,0.00,,---,0.00,VWS V14.00,2013-07-12 05:39:00,
2013-07-12 00:44:00,72.3,52.7,29.79,NW,315,5.5,5.5,50,0.00,,---,0.00,VWS V14.00,2013-07-12 05:44:00,
2013-07-12 00:50:00,72.1,52.5,29.79,NW,315,4.1,4.1,50,0.00,,---,0.00,VWS V14.00,2013-07-12 05:50:00,
2013-07-12 00:55:00,72.1,52.5,29.79,NW,315,4.1,4.1,50,0.00,,---,0.00,VWS V14.00,2013-07-12 05:55:00,
2013-07-12 01:01:00,72.0,52.3,29.79,NNW,338,4.4,4.4,50,0.00,,---,0.00,VWS V14.00,2013-07-12 06:01:00,
2013-07-12 01:06:00,71.8,52.7,29.79,North,0,3.0,3.0,51,0.00,,---,0.00,VWS V14.00,2013-07-12 06:06:00,
2013-07-12 01:11:00,71.8,52.7,29.79,WNW,292,3.8,3.8,51,0.00,,---,0.00,VWS V14.00,2013-07-12 06:11:00,
2013-07-12 01:16:00,71.6,53.1,29.79,NNW,338,2.1,2.2,52,0.00,,---,0.00,VWS V14.00,2013-07-12 06:16:00,
2013-07-12 01:21:00,71.4,52.9,29.79,West,270,2.4,2.5,52,0.00,,---,0.00,VWS V14.00,2013-07-12 06:21:00,
2013-07-12 01:27:00,71.2,53.2,29.79,WNW,292,2.7,2.7,53,0.00,,---,0.00,VWS V14.00,2013-07-12 06:27:00,
2013-07-12 01:32:00,71.2,53.2,29.79,NW,315,4.6,4.6,53,0.00,,---,0.00,VWS V14.00,2013-07-12 06:32:00,
2013-07-12 01:37:00,71.1,53.1,29.79,NW,315,2.1,2.2,53,0.00,,---,0.00,VWS V14.00,2013-07-12 06:37:00,
2013-07-12 01:43:00,71.1,53.1,29.79,NW,315,4.4,4.4,53,0.00,,---,0.00,VWS V14.00,2013-07-12 06:43:00,
2013-07-12 01:48:00,71.1,53.1,29.79,NW,315,3.0,3.1,53,0.00,,---,0.00,VWS V14.00,2013-07-12 06:48:00,
2013-07-12 01:53:00,70.9,53.4,29.79,ESE,112,3.5,5.6,54,0.00,,---,0.00,VWS V14.00,2013-07-12 06:53:00,
2013-07-12 01:58:00,70.9,53.4,29.79,NNW,338,4.4,4.4,54,0.00,,---,0.00,VWS V14.00,2013-07-12 06:58:00,
2013-07-12 02:04:00,70.9,53.4,29.79,ESE,112,2.7,2.7,54,0.00,,---,0.00,VWS V14.00,2013-07-12 07:04:00,
2013-07-12 02:09:00,70.7,53.3,29.79,NW,315,4.6,4.6,54,0.00,,---,0.00,VWS V14.00,2013-07-12 07:09:00,
2013-07-12 02:14:00,70.7,53.3,29.79,NNW,338,2.7,2.7,54,0.00,,---,0.00,VWS V14.00,2013-07-12 07:14:00,
2013-07-12 02:19:00,70.5,53.1,29.79,North,0,3.8,3.8,54,0.00,,---,0.00,VWS V14.00,2013-07-12 07:19:00,
2013-07-12 02:25:00,70.5,53.1,29.79,NW,315,3.0,3.0,54,0.00,,---,0.00,VWS V14.00,2013-07-12 07:25:00,
2013-07-12 02:30:00,70.3,52.9,29.79,NW,315,3.0,3.4,54,0.00,,---,0.00,VWS V14.00,2013-07-12 07:30:00,
2013-07-12 02:35:00,70.3,52.9,29.79,NNW,338,3.8,3.8,54,0.00,,---,0.00,VWS V14.00,2013-07-12 07:35:00,
2013-07-12 02:40:00,70.3,52.9,29.79,ESE,112,3.5,3.5,54,0.00,,---,0.00,VWS V14.00,2013-07-12 07:40:00,
2013-07-12 02:45:00,70.2,52.8,29.79,NW,315,3.0,3.0,54,0.00,,---,0.00,VWS V14.00,2013-07-12 07:45:00,
2013-07-12 02:51:00,70.0,53.1,29.79,NNW,338,2.7,3.1,55,0.00,,---,0.00,VWS V14.00,2013-07-12 07:51:00,
2013-07-12 02:56:00,70.0,53.1,29.79,NNW,338,3.5,4.3,55,0.00,,---,0.00,VWS V14.00,2013-07-12 07:56:00,
2013-07-12 03:01:00,69.8,52.9,29.79,North,0,2.7,2.7,55,0.00,,---,0.00,VWS V14.00,2013-07-12 08:01:00,
2013-07-12 03:06:00,69.6,53.2,29.79,NW,315,4.6,4.6,56,0.00,,---,0.00,VWS V14.00,2013-07-12 08:06:00,
2013-07-12 03:11:00,69.4,53.1,29.79,WNW,292,3.5,3.5,56,0.00,,---,0.00,VWS V14.00,2013-07-12 08:11:00,
2013-07-12 03:16:00,69.4,53.1,29.79,NW,315,3.8,3.8,56,0.00,,---,0.00,VWS V14.00,2013-07-12 08:16:00,
2013-07-12 03:22:00,69.3,52.9,29.79,NW,315,4.4,4.4,56,0.00,,---,0.00,VWS V14.00,2013-07-12 08:22:00,
2013-07-12 03:28:00,69.1,52.7,29.79,NW,315,2.7,2.7,56,0.00,,---,0.00,VWS V14.00,2013-07-12 08:28:00,
2013-07-12 03:33:00,69.1,52.7,29.79,NW,315,2.7,2.7,56,0.00,,---,0.00,VWS V14.00,2013-07-12 08:33:00,
2013-07-12 03:38:00,68.9,52.6,29.79,NW,315,4.4,4.4,56,0.00,,---,0.00,VWS V14.00,2013-07-12 08:38:00,
2013-07-12 03:43:00,68.9,52.6,29.79,NNW,338,4.1,4.1,56,0.00,,---,0.00,VWS V14.00,2013-07-12 08:43:00,
2013-07-12 03:49:00,68.7,52.4,29.79,NNW,338,3.8,3.8,56,0.00,,---,0.00,VWS V14.00,2013-07-12 08:49:00,
2013-07-12 03:54:00,68.5,52.2,29.79,NW,315,2.4,2.7,56,0.00,,---,0.00,VWS V14.00,2013-07-12 08:54:00,
2013-07-12 03:59:00,68.5,52.2,29.79,North,0,3.0,3.1,56,0.00,,---,0.00,VWS V14.00,2013-07-12 08:59:00,
2013-07-12 04:04:00,68.5,52.2,29.79,North,0,2.7,2.7,56,0.00,,---,0.00,VWS V14.00,2013-07-12 09:04:00,
2013-07-12 04:10:00,68.5,52.2,29.79,North,0,3.5,3.5,56,0.00,,---,0.00,VWS V14.00,2013-07-12 09:10:00,
2013-07-12 04:16:00,68.4,52.1,29.79,NNW,338,4.1,4.1,56,0.00,,---,0.00,VWS V14.00,2013-07-12 09:16:00,
2013-07-12 04:21:00,68.2,51.4,29.79,North,0,4.1,4.1,55,0.00,,---,0.00,VWS V14.00,2013-07-12 09:21:00,
2013-07-12 04:26:00,68.2,51.9,29.79,North,0,4.9,5.4,56,0.00,,---,0.00,VWS V14.00,2013-07-12 09:26:00,
2013-07-12 04:31:00,68.2,51.4,29.79,NW,315,4.1,4.1,55,0.00,,---,0.00,VWS V14.00,2013-07-12 09:31:00,
2013-07-12 04:36:00,68.0,51.2,29.79,North,0,4.4,4.4,55,0.00,,---,0.00,VWS V14.00,2013-07-12 09:36:00,
2013-07-12 04:41:00,67.8,51.6,29.79,North,0,4.1,4.1,56,0.00,,---,0.00,VWS V14.00,2013-07-12 09:41:00,
2013-07-12 04:46:00,67.6,51.4,29.79,North,0,2.4,2.4,56,0.00,,---,0.00,VWS V14.00,2013-07-12 09:46:00,
2013-07-12 04:52:00,67.3,51.1,29.79,North,0,4.1,4.1,56,0.00,,---,0.00,VWS V14.00,2013-07-12 09:52:00,
2013-07-12 04:57:00,67.1,50.9,29.79,North,0,3.5,3.5,56,0.00,,---,0.00,VWS V14.00,2013-07-12 09:57:00,
2013-07-12 05:02:00,67.1,50.9,29.79,North,0,4.1,4.1,56,0.00,,---,0.00,VWS V14.00,2013-07-12 10:02:00,
2013-07-12 05:07:00,66.9,50.7,29.79,North,0,4.1,4.1,56,0.00,,---,0.00,VWS V14.00,2013-07-12 10:07:00,
2013-07-12 05:09:00,66.9,50.7,29.79,North,0,4.1,4.1,56,0.00,,---,0.00,VWS V14.00,2013-07-12 10:09:00,
2013-07-12 05:14:00,66.9,50.7,29.79,North,0,3.5,3.5,56,0.00,,---,0.00,VWS V14.00,2013-07-12 10:14:00,
2013-07-12 05:20:00,66.7,51.0,29.79,North,0,3.8,3.8,57,0.00,,---,0.00,VWS V14.00,2013-07-12 10:20:00,
2013-07-12 05:25:00,66.7,51.0,29.79,North,0,3.5,3.5,57,0.00,,---,0.00,VWS V14.00,2013-07-12 10:25:00,
2013-07-12 05:30:00,66.7,51.0,29.79,North,0,2.7,2.9,57,0.00,,---,0.00,VWS V14.00,2013-07-12 10:30:00,
2013-07-12 05:35:00,66.9,51.7,29.82,NNW,338,4.1,4.1,58,0.00,,---,0.00,VWS V14.00,2013-07-12 10:35:00,
2013-07-12 05:41:00,66.9,51.7,29.82,North,0,3.8,3.8,58,0.00,,---,0.00,VWS V14.00,2013-07-12 10:41:00,
2013-07-12 05:46:00,66.9,51.7,29.82,NNW,338,4.4,4.4,58,0.00,,---,0.00,VWS V14.00,2013-07-12 10:46:00,
2013-07-12 05:51:00,66.9,51.7,29.82,NNW,338,3.5,3.5,58,0.00,,---,0.00,VWS V14.00,2013-07-12 10:51:00,
2013-07-12 05:56:00,66.7,51.5,29.82,North,0,2.4,2.4,58,0.00,,---,0.00,VWS V14.00,2013-07-12 10:56:00,
2013-07-12 06:02:00,66.9,51.7,29.82,North,0,4.4,4.4,58,0.00,,---,0.00,VWS V14.00,2013-07-12 11:02:00,
2013-07-12 06:07:00,66.9,51.7,29.82,North,0,3.5,3.5,58,0.00,,---,0.00,VWS V14.00,2013-07-12 11:07:00,
2013-07-12 06:12:00,66.9,52.1,29.82,NNW,338,3.5,3.5,59,0.00,,---,0.00,VWS V14.00,2013-07-12 11:12:00,
2013-07-12 06:17:00,67.1,51.8,29.82,North,0,3.0,3.0,58,0.00,,---,0.00,VWS V14.00,2013-07-12 11:17:00,
2013-07-12 06:23:00,67.1,52.3,29.82,North,0,4.4,4.4,59,0.00,,---,0.00,VWS V14.00,2013-07-12 11:23:00,
2013-07-12 06:28:00,67.3,52.5,29.82,North,0,1.0,2.2,59,0.00,,---,0.00,VWS V14.00,2013-07-12 11:28:00,
2013-07-12 06:33:00,67.5,52.7,29.82,NNW,338,4.6,4.6,59,0.00,,---,0.00,VWS V14.00,2013-07-12 11:33:00,
2013-07-12 06:38:00,67.6,52.8,29.82,North,0,2.7,2.7,59,0.00,,---,0.00,VWS V14.00,2013-07-12 11:38:00,
2013-07-12 06:44:00,67.8,53.0,29.82,North,0,2.1,2.1,59,0.00,,---,0.00,VWS V14.00,2013-07-12 11:44:00,
2013-07-12 06:49:00,68.0,52.7,29.82,NE,45,4.4,4.4,58,0.00,,---,0.00,VWS V14.00,2013-07-12 11:49:00,
2013-07-12 06:54:00,68.2,52.9,29.82,NNW,338,2.7,2.7,58,0.00,,---,0.00,VWS V14.00,2013-07-12 11:54:00,
2013-07-12 06:59:00,68.5,53.2,29.82,NNW,338,3.0,3.0,58,0.00,,---,0.00,VWS V14.00,2013-07-12 11:59:00,
2013-07-12 07:05:00,68.7,53.4,29.82,North,0,4.9,4.9,58,0.00,,---,0.00,VWS V14.00,2013-07-12 12:05:00,
2013-07-12 07:10:00,68.9,53.5,29.82,NNW,338,4.4,4.4,58,0.00,,---,0.00,VWS V14.00,2013-07-12 12:10:00,
2013-07-12 07:15:00,69.3,53.9,29.82,NNW,338,4.9,4.9,58,0.00,,---,0.00,VWS V14.00,2013-07-12 12:15:00,
2013-07-12 07:20:00,69.4,54.0,29.82,NNW,338,4.4,4.4,58,0.00,,---,0.00,VWS V14.00,2013-07-12 12:20:00,
2013-07-12 07:25:00,69.8,53.9,29.82,NNW,338,3.8,3.8,57,0.00,,---,0.00,VWS V14.00,2013-07-12 12:25:00,
2013-07-12 07:31:00,70.2,54.2,29.82,NW,315,3.5,3.5,57,0.00,,---,0.00,VWS V14.00,2013-07-12 12:31:00,
2013-07-12 07:36:00,70.3,53.9,29.82,SW,225,2.4,2.9,56,0.00,,---,0.00,VWS V14.00,2013-07-12 12:36:00,
2013-07-12 07:41:00,70.7,53.8,29.82,North,0,3.5,3.8,55,0.00,,---,0.00,VWS V14.00,2013-07-12 12:41:00,
2013-07-12 07:46:00,70.9,53.9,29.82,NW,315,3.0,4.9,55,0.00,,---,0.00,VWS V14.00,2013-07-12 12:46:00,
2013-07-12 07:51:00,70.9,53.4,29.82,WSW,248,3.8,3.8,54,0.00,,---,0.00,VWS V14.00,2013-07-12 12:51:00,
2013-07-12 07:56:00,71.2,53.8,29.82,NW,315,2.7,2.7,54,0.00,,---,0.00,VWS V14.00,2013-07-12 12:56:00,
2013-07-12 08:01:00,71.4,53.9,29.82,North,0,4.9,4.9,54,0.00,,---,0.00,VWS V14.00,2013-07-12 13:01:00,
2013-07-12 08:07:00,72.0,53.9,29.85,North,0,4.6,4.6,53,0.00,,---,0.00,VWS V14.00,2013-07-12 13:07:00,
2013-07-12 08:12:00,72.1,53.6,29.85,NW,315,3.5,3.5,52,0.00,,---,0.00,VWS V14.00,2013-07-12 13:12:00,
2013-07-12 08:18:00,72.5,53.9,29.85,NNE,22,4.1,4.9,52,0.00,,---,0.00,VWS V14.00,2013-07-12 13:18:00,
2013-07-12 08:23:00,72.9,54.2,29.85,NNW,338,5.8,5.8,52,0.00,,---,0.00,VWS V14.00,2013-07-12 13:23:00,
2013-07-12 08:29:00,73.0,53.9,29.85,SSW,202,4.6,4.9,51,0.00,,---,0.00,VWS V14.00,2013-07-12 13:29:00,
2013-07-12 08:34:00,73.2,53.5,29.85,NNW,338,4.1,4.1,50,0.00,,---,0.00,VWS V14.00,2013-07-12 13:34:00,
2013-07-12 08:39:00,73.4,53.1,29.85,WNW,292,2.7,3.1,49,0.00,,---,0.00,VWS V14.00,2013-07-12 13:39:00,
2013-07-12 08:44:00,73.8,54.0,29.85,NW,315,4.1,4.1,50,0.00,,---,0.00,VWS V14.00,2013-07-12 13:44:00,
2013-07-12 08:49:00,74.1,53.8,29.85,NNW,338,4.4,4.4,49,0.00,,---,0.00,VWS V14.00,2013-07-12 13:49:00,
2013-07-12 08:55:00,74.3,53.4,29.85,SE,135,5.2,5.2,48,0.00,,---,0.00,VWS V14.00,2013-07-12 13:55:00,
2013-07-12 09:00:00,74.7,54.2,29.85,NNE,22,5.2,5.2,49,0.00,,---,0.00,VWS V14.00,2013-07-12 14:00:00,
2013-07-12 09:06:00,75.2,54.2,29.85,NNW,338,4.1,4.1,48,0.00,,---,0.00,VWS V14.00,2013-07-12 14:06:00,
2013-07-12 09:11:00,75.4,54.3,29.85,ENE,68,2.4,2.4,48,0.00,,---,0.00,VWS V14.00,2013-07-12 14:11:00,
2013-07-12 09:16:00,75.7,54.1,29.85,NW,315,5.2,5.2,47,0.00,,---,0.00,VWS V14.00,2013-07-12 14:16:00,
2013-07-12 09:21:00,75.9,54.3,29.85,East,90,4.4,4.4,47,0.00,,---,0.00,VWS V14.00,2013-07-12 14:21:00,
2013-07-12 09:26:00,76.1,54.4,29.85,WSW,248,2.7,4.3,47,0.00,,---,0.00,VWS V14.00,2013-07-12 14:26:00,
2013-07-12 09:32:00,76.6,54.9,29.85,North,0,3.0,3.0,47,0.00,,---,0.00,VWS V14.00,2013-07-12 14:32:00,
2013-07-12 09:37:00,76.6,54.9,29.85,ENE,68,2.7,2.7,47,0.00,,---,0.00,VWS V14.00,2013-07-12 14:37:00,
2013-07-12 09:42:00,77.0,54.1,29.85,West,270,3.5,3.5,45,0.00,,---,0.00,VWS V14.00,2013-07-12 14:42:00,
2013-07-12 09:47:00,77.2,54.2,29.85,North,0,2.7,2.7,45,0.00,,---,0.00,VWS V14.00,2013-07-12 14:47:00,
2013-07-12 09:53:00,77.5,53.9,29.85,SE,135,2.4,3.8,44,0.00,,---,0.00,VWS V14.00,2013-07-12 14:53:00,
2013-07-12 09:58:00,77.9,54.3,29.85,NNW,338,3.0,3.0,44,0.00,,---,0.00,VWS V14.00,2013-07-12 14:58:00,
2013-07-12 10:03:00,78.1,53.8,29.85,NW,315,4.9,4.9,43,0.00,,---,0.00,VWS V14.00,2013-07-12 15:03:00,
2013-07-12 10:08:00,78.3,54.0,29.85,NNW,338,4.1,4.1,43,0.00,,---,0.00,VWS V14.00,2013-07-12 15:08:00,
2013-07-12 10:14:00,78.6,54.3,29.85,NNW,338,4.4,4.4,43,0.00,,---,0.00,VWS V14.00,2013-07-12 15:14:00,
2013-07-12 10:19:00,79.0,54.0,29.85,West,270,3.0,3.6,42,0.00,,---,0.00,VWS V14.00,2013-07-12 15:19:00,
2013-07-12 10:25:00,79.2,54.1,29.85,NNW,338,2.7,2.7,42,0.00,,---,0.00,VWS V14.00,2013-07-12 15:25:00,
2013-07-12 10:30:00,79.7,53.9,29.85,SSE,158,3.5,3.5,41,0.00,,---,0.00,VWS V14.00,2013-07-12 15:30:00,
2013-07-12 10:35:00,79.7,53.3,29.85,SW,225,3.5,3.5,40,0.00,,---,0.00,VWS V14.00,2013-07-12 15:35:00,
2013-07-12 10:40:00,79.9,53.4,29.85,SSW,202,5.5,5.5,40,0.00,,---,0.00,VWS V14.00,2013-07-12 15:40:00,
2013-07-12 10:46:00,80.2,53.8,29.85,East,90,4.1,4.1,40,0.00,,---,0.00,VWS V14.00,2013-07-12 15:46:00,
2013-07-12 10:51:00,80.6,53.4,29.85,NNW,338,5.2,5.2,39,0.00,,---,0.00,VWS V14.00,2013-07-12 15:51:00,
2013-07-12 10:56:00,80.6,53.4,29.85,East,90,4.1,4.1,39,0.00,,---,0.00,VWS V14.00,2013-07-12 15:56:00,
2013-07-12 11:01:00,80.8,52.1,29.85,SE,135,3.8,4.3,37,0.00,,---,0.00,VWS V14.00,2013-07-12 16:01:00,
2013-07-12 11:06:00,81.1,53.2,29.85,NW,315,5.8,6.3,38,0.00,,---,0.00,VWS V14.00,2013-07-12 16:06:00,
2013-07-12 11:11:00,81.5,52.7,29.85,NE,45,4.4,6.3,37,0.00,,---,0.00,VWS V14.00,2013-07-12 16:11:00,
2013-07-12 11:17:00,81.7,52.2,29.82,North,0,4.1,4.1,36,0.00,,---,0.00,VWS V14.00,2013-07-12 16:17:00,
2013-07-12 11:22:00,82.2,51.9,29.82,NE,45,3.8,8.7,35,0.00,,---,0.00,VWS V14.00,2013-07-12 16:22:00,
2013-07-12 11:27:00,82.6,51.4,29.82,NE,45,3.5,3.5,34,0.00,,---,0.00,VWS V14.00,2013-07-12 16:27:00,
2013-07-12 11:33:00,83.1,52.7,29.82,NW,315,4.4,4.4,35,0.00,,---,0.00,VWS V14.00,2013-07-12 16:33:00,
2013-07-12 11:38:00,83.1,51.1,29.82,NW,315,4.4,4.4,33,0.00,,---,0.00,VWS V14.00,2013-07-12 16:38:00,
2013-07-12 11:43:00,83.7,52.3,29.82,NW,315,4.4,4.4,34,0.00,,---,0.00,VWS V14.00,2013-07-12 16:43:00,
2013-07-12 11:48:00,83.7,51.5,29.85,NW,315,8.6,8.6,33,0.00,,---,0.00,VWS V14.00,2013-07-12 16:48:00,
2013-07-12 11:53:00,83.7,51.5,29.85,North,0,7.2,7.2,33,0.00,,---,0.00,VWS V14.00,2013-07-12 16:53:00,
2013-07-12 12:00:00,84.2,50.3,29.85,North,0,4.1,4.1,31,0.00,,---,0.00,VWS V14.00,2013-07-12 17:00:00,
2013-07-12 12:06:00,84.0,50.2,29.82,East,90,3.5,4.3,31,0.00,,---,0.00,VWS V14.00,2013-07-12 17:06:00,
2013-07-12 12:11:00,84.2,49.4,29.82,North,0,5.5,5.5,30,0.00,,---,0.00,VWS V14.00,2013-07-12 17:11:00,
2013-07-12 12:16:00,84.7,50.8,29.82,East,90,5.5,5.5,31,0.00,,---,0.00,VWS V14.00,2013-07-12 17:16:00,
2013-07-12 12:22:00,84.9,50.1,29.82,West,270,4.4,6.0,30,0.00,,---,0.00,VWS V14.00,2013-07-12 17:22:00,
2013-07-12 12:27:00,85.1,50.2,29.82,NW,315,2.1,3.1,30,0.00,,---,0.00,VWS V14.00,2013-07-12 17:27:00,
2013-07-12 12:33:00,85.6,50.7,29.82,SE,135,4.6,4.6,30,0.00,,---,0.00,VWS V14.00,2013-07-12 17:33:00,
2013-07-12 12:39:00,85.8,49.9,29.82,NW,315,8.0,8.0,29,0.00,,---,0.00,VWS V14.00,2013-07-12 17:39:00,
2013-07-12 12:44:00,85.6,49.8,29.82,NE,45,4.9,4.9,29,0.00,,---,0.00,VWS V14.00,2013-07-12 17:44:00,
2013-07-12 12:49:00,85.8,49.9,29.82,NW,315,4.1,4.3,29,0.00,,---,0.00,VWS V14.00,2013-07-12 17:49:00,
2013-07-12 12:55:00,86.4,50.4,29.82,NW,315,8.0,8.0,29,0.00,,---,0.00,VWS V14.00,2013-07-12 17:55:00,
2013-07-12 13:00:00,86.4,51.3,29.82,NNW,338,4.1,4.1,30,0.00,,---,0.00,VWS V14.00,2013-07-12 18:00:00,
2013-07-12 13:05:00,86.7,50.7,29.82,West,270,3.0,3.0,29,0.00,,---,0.00,VWS V14.00,2013-07-12 18:05:00,
2013-07-12 13:10:00,86.7,50.7,29.82,NW,315,5.5,5.5,29,0.00,,---,0.00,VWS V14.00,2013-07-12 18:10:00,
2013-07-12 13:17:00,86.5,50.5,29.82,NW,315,4.4,8.5,29,0.00,,---,0.00,VWS V14.00,2013-07-12 18:17:00,
2013-07-12 13:22:00,86.7,50.7,29.82,NE,45,6.3,6.3,29,0.00,,---,0.00,VWS V14.00,2013-07-12 18:22:00,
2013-07-12 13:28:00,86.9,50.8,29.82,ENE,68,5.5,6.0,29,0.00,,---,0.00,VWS V14.00,2013-07-12 18:28:00,
2013-07-12 13:33:00,86.9,50.8,29.82,WSW,248,2.4,3.1,29,0.00,,---,0.00,VWS V14.00,2013-07-12 18:33:00,
2013-07-12 13:38:00,87.3,51.2,29.82,ESE,112,4.1,4.1,29,0.00,,---,0.00,VWS V14.00,2013-07-12 18:38:00,
2013-07-12 13:45:00,87.4,50.4,29.82,NNW,338,6.3,6.3,28,0.00,,---,0.00,VWS V14.00,2013-07-12 18:45:00,
2013-07-12 13:51:00,87.1,49.1,29.82,North,0,13.9,13.9,27,0.00,,---,0.00,VWS V14.00,2013-07-12 18:51:00,
2013-07-12 13:56:00,87.3,50.2,29.82,NE,45,5.8,5.8,28,0.00,,---,0.00,VWS V14.00,2013-07-12 18:56:00,
2013-07-12 14:01:00,87.3,50.2,29.82,SSW,202,3.0,3.0,28,0.00,,---,0.00,VWS V14.00,2013-07-12 19:01:00,
2013-07-12 14:07:00,87.6,48.5,29.82,South,180,7.7,7.7,26,0.00,,---,0.00,VWS V14.00,2013-07-12 19:07:00,
2013-07-12 14:13:00,87.4,50.4,29.82,NW,315,8.0,8.0,28,0.00,,---,0.00,VWS V14.00,2013-07-12 19:13:00,
2013-07-12 14:20:00,87.6,50.5,29.82,WSW,248,3.8,4.3,28,0.00,,---,0.00,VWS V14.00,2013-07-12 19:20:00,
2013-07-12 14:26:00,87.6,48.5,29.82,North,0,4.4,4.4,26,0.00,,---,0.00,VWS V14.00,2013-07-12 19:26:00,
2013-07-12 14:31:00,87.6,47.5,29.82,SSE,158,2.4,4.7,25,0.00,,---,0.00,VWS V14.00,2013-07-12 19:31:00,
2013-07-12 14:36:00,87.6,47.5,29.79,NW,315,7.2,7.2,25,0.00,,---,0.00,VWS V14.00,2013-07-12 19:36:00,
2013-07-12 14:41:00,87.6,48.5,29.79,NW,315,4.4,4.4,26,0.00,,---,0.00,VWS V14.00,2013-07-12 19:41:00,
2013-07-12 14:47:00,87.6,48.5,29.79,ESE,112,3.0,3.6,26,0.00,,---,0.00,VWS V14.00,2013-07-12 19:47:00,
2013-07-12 14:52:00,87.4,46.2,29.79,SE,135,5.8,6.5,24,0.00,,---,0.00,VWS V14.00,2013-07-12 19:52:00,
2013-07-12 14:58:00,87.4,48.4,29.79,NW,315,3.5,5.6,26,0.00,,---,0.00,VWS V14.00,2013-07-12 19:58:00,
2013-07-12 15:04:00,87.4,46.2,29.79,NW,315,5.2,5.2,24,0.00,,---,0.00,VWS V14.00,2013-07-12 20:04:00,
2013-07-12 15:10:00,87.3,46.1,29.79,North,0,6.3,6.3,24,0.00,,---,0.00,VWS V14.00,2013-07-12 20:10:00,
2013-07-12 15:16:00,87.6,48.5,29.79,North,0,6.0,6.0,26,0.00,,---,0.00,VWS V14.00,2013-07-12 20:16:00,
2013-07-12 15:21:00,87.6,47.5,29.79,NW,315,3.0,3.0,25,0.00,,---,0.00,VWS V14.00,2013-07-12 20:21:00,
2013-07-12 15:27:00,87.4,46.2,29.79,NW,315,4.9,6.0,24,0.00,,---,0.00,VWS V14.00,2013-07-12 20:27:00,
2013-07-12 15:32:00,87.4,45.1,29.79,NNW,338,5.2,5.6,23,0.00,,---,0.00,VWS V14.00,2013-07-12 20:32:00,
2013-07-12 15:37:00,87.4,45.1,29.79,NW,315,10.8,10.8,23,0.00,,---,0.00,VWS V14.00,2013-07-12 20:37:00,
2013-07-12 15:44:00,87.6,45.3,29.79,North,0,4.9,5.4,23,0.00,,---,0.00,VWS V14.00,2013-07-12 20:44:00,
2013-07-12 15:50:00,87.3,43.8,29.79,NNW,338,5.8,6.0,22,0.00,,---,0.00,VWS V14.00,2013-07-12 20:50:00,
2013-07-12 15:55:00,87.1,43.7,29.79,North,0,8.6,8.6,22,0.00,,---,0.00,VWS V14.00,2013-07-12 20:55:00,
2013-07-12 16:00:00,87.1,42.5,29.79,East,90,5.2,5.2,21,0.00,,---,0.00,VWS V14.00,2013-07-12 21:00:00,
2013-07-12 16:05:00,87.1,43.7,29.79,North,0,3.5,3.5,22,0.00,,---,0.00,VWS V14.00,2013-07-12 21:05:00,
2013-07-12 16:11:00,87.1,43.7,29.79,NNW,338,5.8,5.8,22,0.00,,---,0.00,VWS V14.00,2013-07-12 21:11:00,
2013-07-12 16:16:00,87.1,42.5,29.79,NNW,338,4.4,7.4,21,0.00,,---,0.00,VWS V14.00,2013-07-12 21:16:00,
2013-07-12 16:21:00,87.1,42.5,29.79,West,270,4.6,4.9,21,0.00,,---,0.00,VWS V14.00,2013-07-12 21:21:00,
2013-07-12 16:27:00,87.1,41.2,29.79,SSW,202,3.0,3.0,20,0.00,,---,0.00,VWS V14.00,2013-07-12 21:27:00,
2013-07-12 16:33:00,87.3,43.8,29.79,NNW,338,4.6,4.6,22,0.00,,---,0.00,VWS V14.00,2013-07-12 21:33:00,
2013-07-12 16:40:00,87.1,42.5,29.79,North,0,13.3,13.3,21,0.00,,---,0.00,VWS V14.00,2013-07-12 21:40:00,
2013-07-12 16:45:00,87.1,42.5,29.79,North,0,4.6,4.6,21,0.00,,---,0.00,VWS V14.00,2013-07-12 21:45:00,
2013-07-12 16:51:00,87.1,41.2,29.79,NW,315,6.0,7.8,20,0.00,,---,0.00,VWS V14.00,2013-07-12 21:51:00,
2013-07-12 16:56:00,86.9,41.0,29.79,North,0,10.8,10.8,20,0.00,,---,0.00,VWS V14.00,2013-07-12 21:56:00,
2013-07-12 17:01:00,86.9,41.0,29.79,West,270,8.0,9.8,20,0.00,,---,0.00,VWS V14.00,2013-07-12 22:01:00,
2013-07-12 17:07:00,86.9,42.3,29.79,SW,225,6.0,6.0,21,0.00,,---,0.00,VWS V14.00,2013-07-12 22:07:00,
2013-07-12 17:12:00,86.9,42.3,29.79,NNW,338,5.8,5.8,21,0.00,,---,0.00,VWS V14.00,2013-07-12 22:12:00,
2013-07-12 17:17:00,86.9,42.3,29.79,NW,315,4.9,4.9,21,0.00,,---,0.00,VWS V14.00,2013-07-12 22:17:00,
2013-07-12 17:22:00,87.1,43.7,29.79,North,0,3.5,3.5,22,0.00,,---,0.00,VWS V14.00,2013-07-12 22:22:00,
2013-07-12 17:28:00,87.1,42.5,29.79,NNW,338,8.8,10.3,21,0.00,,---,0.00,VWS V14.00,2013-07-12 22:28:00,
2013-07-12 17:33:00,86.7,42.2,29.79,WNW,292,5.8,5.8,21,0.00,,---,0.00,VWS V14.00,2013-07-12 22:33:00,
2013-07-12 17:38:00,86.5,42.0,29.79,NW,315,4.1,4.9,21,0.00,,---,0.00,VWS V14.00,2013-07-12 22:38:00,
2013-07-12 17:43:00,86.5,42.0,29.79,North,0,9.1,9.1,21,0.00,,---,0.00,VWS V14.00,2013-07-12 22:43:00,
2013-07-12 17:49:00,86.4,43.1,29.76,NW,315,4.1,4.1,22,0.00,,---,0.00,VWS V14.00,2013-07-12 22:49:00,
2013-07-12 17:55:00,86.4,43.1,29.76,NNE,22,6.0,6.0,22,0.00,,---,0.00,VWS V14.00,2013-07-12 22:55:00,
2013-07-12 18:00:00,86.2,42.9,29.76,North,0,6.0,6.0,22,0.00,,---,0.00,VWS V14.00,2013-07-12 23:00:00,
2013-07-12 18:06:00,86.4,43.1,29.76,North,0,4.6,4.6,22,0.00,,---,0.00,VWS V14.00,2013-07-12 23:06:00,
2013-07-12 18:12:00,86.4,41.9,29.76,North,0,5.8,5.8,21,0.00,,---,0.00,VWS V14.00,2013-07-12 23:12:00,
2013-07-12 18:20:00,86.0,42.8,29.76,NW,315,3.5,3.8,22,0.00,,---,0.00,VWS V14.00,2013-07-12 23:20:00,
2013-07-12 18:25:00,85.6,42.5,29.76,NNW,338,7.2,7.2,22,0.00,,---,0.00,VWS V14.00,2013-07-12 23:25:00,
2013-07-12 18:31:00,85.6,42.5,29.76,NW,315,4.9,4.9,22,0.00,,---,0.00,VWS V14.00,2013-07-12 23:31:00,
2013-07-12 18:36:00,85.5,42.3,29.79,NNW,338,7.7,7.7,22,0.00,,---,0.00,VWS V14.00,2013-07-12 23:36:00,
2013-07-12 18:42:00,85.3,42.2,29.79,NW,315,4.1,4.3,22,0.00,,---,0.00,VWS V14.00,2013-07-12 23:42:00,
2013-07-12 18:47:00,85.3,42.2,29.79,North,0,3.5,3.5,22,0.00,,---,0.00,VWS V14.00,2013-07-12 23:47:00,
2013-07-12 18:52:00,85.1,42.0,29.79,SW,225,4.4,4.4,22,0.00,,---,0.00,VWS V14.00,2013-07-12 23:52:00,
2013-07-12 18:58:00,85.1,42.0,29.79,North,0,8.0,8.0,22,0.00,,---,0.00,VWS V14.00,2013-07-12 23:58:00,
2013-07-12 19:04:00,84.7,41.7,29.79,NW,315,5.5,5.5,22,0.00,,---,0.00,VWS V14.00,2013-07-13 00:04:00,
2013-07-12 19:10:00,84.7,41.7,29.79,NNW,338,4.1,4.1,22,0.00,,---,0.00,VWS V14.00,2013-07-13 00:10:00,
2013-07-12 19:15:00,84.7,41.7,29.79,North,0,3.5,3.5,22,0.00,,---,0.00,VWS V14.00,2013-07-13 00:15:00,
2013-07-12 19:20:00,84.7,41.7,29.76,North,0,7.2,7.2,22,0.00,,---,0.00,VWS V14.00,2013-07-13 00:20:00,
2013-07-12 19:25:00,85.3,42.2,29.76,North,0,4.6,4.6,22,0.00,,---,0.00,VWS V14.00,2013-07-13 00:25:00,
2013-07-12 19:30:00,85.5,42.3,29.76,NW,315,4.4,4.4,22,0.00,,---,0.00,VWS V14.00,2013-07-13 00:30:00,
2013-07-12 19:35:00,85.3,41.0,29.79,NNW,338,8.0,8.0,21,0.00,,---,0.00,VWS V14.00,2013-07-13 00:35:00,
2013-07-12 19:40:00,84.7,40.5,29.79,NNW,338,5.2,5.2,21,0.00,,---,0.00,VWS V14.00,2013-07-13 00:40:00,
2013-07-12 19:46:00,83.8,41.0,29.79,NW,315,3.8,3.8,22,0.00,,---,0.00,VWS V14.00,2013-07-13 00:46:00,
2013-07-12 19:51:00,83.1,41.5,29.79,North,0,4.9,4.9,23,0.00,,---,0.00,VWS V14.00,2013-07-13 00:51:00,
2013-07-12 19:59:00,81.9,41.6,29.79,North,0,3.0,3.0,24,0.00,,---,0.00,VWS V14.00,2013-07-13 00:59:00,
2013-07-12 20:04:00,81.3,42.2,29.76,NNW,338,3.5,3.5,25,0.00,,---,0.00,VWS V14.00,2013-07-13 01:04:00,
2013-07-12 20:10:00,80.8,41.7,29.76,North,0,4.1,4.1,25,0.00,,---,0.00,VWS V14.00,2013-07-13 01:10:00,
2013-07-12 20:16:00,80.2,43.3,29.76,North,0,3.8,3.8,27,0.00,,---,0.00,VWS V14.00,2013-07-13 01:16:00,
2013-07-12 20:21:00,79.5,43.6,29.76,North,0,3.0,3.0,28,0.00,,---,0.00,VWS V14.00,2013-07-13 01:21:00,
2013-07-12 20:27:00,79.2,43.3,29.76,North,0,4.1,4.1,28,0.00,,---,0.00,VWS V14.00,2013-07-13 01:27:00,
2013-07-12 20:32:00,78.4,43.6,29.76,North,0,3.5,3.5,29,0.00,,---,0.00,VWS V14.00,2013-07-13 01:32:00,
2013-07-12 20:38:00,78.1,44.2,29.79,North,0,3.0,3.0,30,0.00,,---,0.00,VWS V14.00,2013-07-13 01:38:00,
2013-07-12 20:44:00,77.5,43.7,29.79,North,0,3.5,3.5,30,0.00,,---,0.00,VWS V14.00,2013-07-13 01:44:00,
2013-07-12 20:49:00,77.2,44.2,29.79,North,0,3.0,3.0,31,0.00,,---,0.00,VWS V14.00,2013-07-13 01:49:00,
2013-07-12 20:56:00,77.0,44.1,29.79,North,0,1.0,0.0,31,0.00,,---,0.00,VWS V14.00,2013-07-13 01:56:00,
2013-07-12 21:01:00,76.5,44.4,29.79,ESE,112,1.0,1.1,32,0.00,,---,0.00,VWS V14.00,2013-07-13 02:01:00,
2013-07-12 21:06:00,76.1,44.1,29.79,ESE,112,2.4,2.4,32,0.00,,---,0.00,VWS V14.00,2013-07-13 02:06:00,
2013-07-12 21:11:00,75.6,44.5,29.79,ESE,112,2.7,2.7,33,0.00,,---,0.00,VWS V14.00,2013-07-13 02:11:00,
2013-07-12 21:16:00,75.4,44.3,29.79,ESE,112,1.0,0.0,33,0.00,,---,0.00,VWS V14.00,2013-07-13 02:16:00,
2013-07-12 21:21:00,75.0,44.0,29.79,NE,45,2.4,2.4,33,0.00,,---,0.00,VWS V14.00,2013-07-13 02:21:00,
2013-07-12 21:27:00,74.7,44.5,29.79,NE,45,1.0,1.1,34,0.00,,---,0.00,VWS V14.00,2013-07-13 02:27:00,
2013-07-12 21:32:00,74.3,44.1,29.79,NE,45,2.7,2.7,34,0.00,,---,0.00,VWS V14.00,2013-07-13 02:32:00,
2013-07-12 21:37:00,74.1,44.8,29.79,NE,45,2.4,2.4,35,0.00,,---,0.00,VWS V14.00,2013-07-13 02:37:00,
2013-07-12 21:42:00,73.8,44.4,29.79,NE,45,2.4,2.4,35,0.00,,---,0.00,VWS V14.00,2013-07-13 02:42:00,
2013-07-12 21:47:00,73.4,44.8,29.79,NE,45,2.1,2.1,36,0.00,,---,0.00,VWS V14.00,2013-07-13 02:47:00,
2013-07-12 21:53:00,73.0,45.2,29.79,NE,45,2.7,2.7,37,0.00,,---,0.00,VWS V14.00,2013-07-13 02:53:00,
2013-07-12 21:59:00,72.7,45.6,29.79,North,0,1.0,1.3,38,0.00,,---,0.00,VWS V14.00,2013-07-13 02:59:00,
2013-07-12 22:04:00,72.5,45.5,29.79,North,0,3.0,3.0,38,0.00,,---,0.00,VWS V14.00,2013-07-13 03:04:00,
2013-07-12 22:09:00,72.1,45.8,29.79,North,0,3.5,3.5,39,0.00,,---,0.00,VWS V14.00,2013-07-13 03:09:00,
2013-07-12 22:15:00,72.0,46.3,29.79,North,0,3.0,3.0,40,0.00,,---,0.00,VWS V14.00,2013-07-13 03:15:00,
2013-07-12 22:20:00,71.6,46.7,29.79,North,0,3.5,3.5,41,0.00,,---,0.00,VWS V14.00,2013-07-13 03:20:00,
2013-07-12 22:25:00,71.4,47.2,29.79,North,0,3.5,3.5,42,0.00,,---,0.00,VWS V14.00,2013-07-13 03:25:00,
2013-07-12 22:30:00,71.2,47.0,29.79,North,0,3.0,3.0,42,0.00,,---,0.00,VWS V14.00,2013-07-13 03:30:00,
2013-07-12 22:36:00,70.9,46.7,29.79,North,0,2.1,2.1,42,0.00,,---,0.00,VWS V14.00,2013-07-13 03:36:00,
2013-07-12 22:41:00,70.7,47.1,29.79,North,0,2.1,2.1,43,0.00,,---,0.00,VWS V14.00,2013-07-13 03:41:00,
2013-07-12 22:47:00,70.5,47.0,29.79,North,0,1.0,1.0,43,0.00,,---,0.00,VWS V14.00,2013-07-13 03:47:00,
2013-07-12 22:52:00,70.3,47.4,29.79,North,0,3.5,3.5,44,0.00,,---,0.00,VWS V14.00,2013-07-13 03:52:00,
2013-07-12 22:58:00,70.2,47.2,29.79,NNW,338,2.4,2.4,44,0.00,,---,0.00,VWS V14.00,2013-07-13 03:58:00,
2013-07-12 23:02:00,70.0,47.7,29.82,NNW,338,1.0,0.0,45,0.00,,---,0.00,VWS V14.00,2013-07-13 04:02:00,
2013-07-12 23:03:00,70.0,47.7,29.82,NNW,338,1.0,0.0,45,0.00,,---,0.00,VWS V14.00,2013-07-13 04:03:00,
2013-07-12 23:05:00,69.8,47.5,29.82,NNW,338,4.1,4.1,45,0.00,,---,0.00,VWS V14.00,2013-07-13 04:05:00,
2013-07-12 23:06:00,69.8,47.5,29.82,NNW,338,3.8,3.8,45,0.00,,---,0.00,VWS V14.00,2013-07-13 04:06:00,
2013-07-12 23:08:00,69.8,47.5,29.82,NNW,338,2.7,2.7,45,0.00,,---,0.00,VWS V14.00,2013-07-13 04:08:00,
2013-07-12 23:14:00,69.4,47.8,29.82,NNW,338,4.1,4.1,46,0.00,,---,0.00,VWS V14.00,2013-07-13 04:14:00,
2013-07-12 23:19:00,69.3,47.6,29.82,NNW,338,2.4,2.4,46,0.00,,---,0.00,VWS V14.00,2013-07-13 04:19:00,
2013-07-12 23:25:00,69.3,48.2,29.79,NNW,338,3.0,3.0,47,0.00,,---,0.00,VWS V14.00,2013-07-13 04:25:00,
2013-07-12 23:30:00,69.1,48.0,29.79,NNW,338,1.0,0.0,47,0.00,,---,0.00,VWS V14.00,2013-07-13 04:30:00,
2013-07-12 23:36:00,68.9,47.9,29.82,NNW,338,1.0,0.0,47,0.00,,---,0.00,VWS V14.00,2013-07-13 04:36:00,
2013-07-12 23:41:00,68.7,48.3,29.82,NNW,338,2.7,2.7,48,0.00,,---,0.00,VWS V14.00,2013-07-13 04:41:00,
2013-07-12 23:47:00,68.5,48.1,29.82,NNW,338,1.0,1.3,48,0.00,,---,0.00,VWS V14.00,2013-07-13 04:47:00,
2013-07-12 23:53:00,68.4,48.5,29.82,NNW,338,1.0,0.0,49,0.00,,---,0.00,VWS V14.00,2013-07-13 04:53:00,
2013-07-12 23:58:00,68.2,48.3,29.82,NNW,338,3.5,3.5,49,0.00,,---,0.00,VWS V14.00,2013-07-13 04:58:00,